Tegucigalpa, Honduras

3:09 PM CST on March 29, 2017 (GMT -0600)
Toncontin International

Weather History for MHTG - January, 2014

Change the Weather History Date:

Sunday, January 12, 2014

  Actual Average Record
Temperature  
Mean Temperature 66 °F -  
Max Temperature 77 °F 78 °F 84 °F (1997)
Min Temperature 56 °F 57 °F 51 °F (2012)
Cooling Degree Days 2    
Growing Degree Days 16 (Base 50)    
Moisture  
Dew Point 58 °F    
Average Humidity 73    
Maximum Humidity 98    
Minimum Humidity 43    
Precipitation  
Precipitation 0.00 in 0.01 in - ()
Sea Level Pressure  
Sea Level Pressure 30.10 in    
Wind  
Wind Speed 5 mph ()    
Max Wind Speed 12 mph    
Max Gust Speed -    
Visibility 6.4 miles    
Events      
Averages and records for this station are not official NWS values.
T = Trace of Precipitation, MM = Missing Value Source: Averaged Metar Reports

Daily Weather History Graph

Daily Weather History Graph

Search for Another Location

Airport or City:

Trip Planner

Search our weather history database for the weather conditions in past years. The results will help you decide how hot, cold, wet, or windy it might be!

Date:

Astronomy

Jan. 12, 2014 Rise Set
Actual Time 6:16 AM CST 5:38 PM CST
Civil Twilight 5:53 AM CST 6:01 PM CST
Nautical Twilight 5:26 AM CST 6:27 PM CST
Astronomical Twilight 5:00 AM CST 6:53 PM CST
Moon 3:02 PM CST (1/12) 3:18 AM CST (1/12)
Length of Visible Light 12h 07m
Length of Day
11h 22m
Waxing Gibbous, 90% of the Moon is Illuminated
Jan 12
Waxing Gibbous
Jan 15
Full
Jan 23
Last Quarter
Jan 30
New
Feb 6
First Quarter

Hourly Weather History & Observations

Time (CST) Temp. Dew Point Humidity Pressure Visibility Wind Dir Wind Speed Gust Speed Precip Events Conditions
12:00 AM 62.6 °F 59.0 °F 88% 30.15 in 6.2 mi North 4.6 mph - N/A   Scattered Clouds
1:00 AM 60.8 °F 57.2 °F 88% 30.12 in 6.2 mi NNW 3.5 mph - N/A   Scattered Clouds
2:00 AM 59.0 °F 57.2 °F 94% 30.12 in 6.2 mi North 3.5 mph - N/A   Partly Cloudy
3:00 AM 59 °F 59 °F 98% 30.02 in 6 mi Calm Calm - -   Haze
3:00 AM 59.0 °F 57.2 °F 94% 30.12 in 6.2 mi North 4.6 mph - N/A   Partly Cloudy
4:00 AM 57.2 °F 55.4 °F 94% 30.12 in 6.2 mi Calm Calm - N/A   Scattered Clouds
5:00 AM 57.2 °F 55.4 °F 94% 30.12 in 6.2 mi WSW 3.5 mph - N/A   Scattered Clouds
6:00 AM 58 °F 56 °F 90% 30.05 in 6 mi NNW 3.5 mph - -   Mist
6:00 AM 57.2 °F 55.4 °F 94% 30.12 in 6.2 mi NNW 3.5 mph - N/A   Scattered Clouds
7:00 AM 59.0 °F 57.2 °F 94% 30.15 in 6.2 mi WNW 2.3 mph - N/A   Scattered Clouds
8:00 AM 66.2 °F 62.6 °F 88% 30.18 in 6.2 mi North 11.5 mph - N/A   Scattered Clouds
9:00 AM 70 °F 62 °F 70% 30.08 in 6 mi NE 9.2 mph - -   Haze
9:00 AM 69.8 °F 62.6 °F 78% 30.18 in 6.2 mi NE 9.2 mph - N/A   Scattered Clouds
10:00 AM 73.4 °F 59.0 °F 61% 30.18 in 6.2 mi NE 11.5 mph - N/A   Scattered Clouds
11:00 AM 73.4 °F 60.8 °F 65% 30.15 in 6.2 mi NE 6.9 mph - N/A   Mostly Cloudy
12:00 PM 74 °F 56 °F 43% 29.96 in 7 mi NE 10.4 mph - -   Haze
12:00 PM 73.4 °F 55.4 °F 53% 30.15 in 6.2 mi NE 10.4 mph - N/A   Mostly Cloudy
1:00 PM 77.0 °F 60.8 °F 57% 30.12 in 6.2 mi NNE 9.2 mph - N/A   Mostly Cloudy
2:00 PM 75.2 °F 57.2 °F 53% 30.06 in 6.2 mi NE 9.2 mph - N/A   Mostly Cloudy
3:00 PM 76 °F 58 °F 43% 29.89 in 9 mi ENE 9.2 mph - -   Haze
3:00 PM 75.2 °F 57.2 °F 53% 30.06 in 6.2 mi ENE 9.2 mph - N/A   Mostly Cloudy
4:00 PM 77.0 °F 57.2 °F 50% 30.06 in 6.2 mi ENE 9.2 mph - N/A   Mostly Cloudy
5:00 PM 77.0 °F 59.0 °F 54% 30.06 in 6.2 mi ENE 5.8 mph - N/A   Scattered Clouds
6:00 PM 72 °F 59 °F 54% 29.94 in 9 mi NNE 5.8 mph - -  
6:00 PM 71.6 °F 59.0 °F 64% 30.09 in 6.2 mi NNE 5.8 mph - N/A   Mostly Cloudy
7:00 PM 68.0 °F 62.6 °F 83% 30.12 in 6.2 mi NNE 6.9 mph - N/A   Scattered Clouds
8:00 PM 68.0 °F 60.8 °F 78% 30.15 in 6.2 mi NNE 5.8 mph - N/A   Mostly Cloudy
9:00 PM 68 °F 57 °F 59% 30.01 in 6 mi ENE 8.1 mph - -   Haze
9:00 PM 68.0 °F 57.2 °F 68% 30.15 in 6.2 mi ENE 8.1 mph - N/A   Scattered Clouds
10:00 PM 64.4 °F 59.0 °F 83% 30.15 in 6.2 mi NNE 4.6 mph - N/A   Scattered Clouds
11:00 PM 62.6 °F 57.2 °F 82% 30.15 in 6.2 mi North 4.6 mph - N/A   Scattered Clouds